Location: Franzen
(48.6167°N, 15.3833°E)
Time: 14:01:27
(UTC+00:00)

Cosmos 2221 - Pass Details

Date: 31 July 2021
Orbit: 593 x 614 km, 82.5° (Epoch: 21 September)

Event Time Altitude Azimuth Distance (km) Brightness Sun altitude
Rises 20:08:37 0° 333° (NNW) 2,862 7.6 -12.7°
Reaches altitude 10° 20:11:42 10° 310° (NW) 1,957 6.6 -13.0°
Maximum altitude 20:14:03 15° 277° (W) 1,676 5.5 -13.3°
Drops below altitude 10° 20:16:24 10° 243° (WSW) 1,956 5.3 -13.5°
Sets 20:19:29 0° 220° (SW) 2,858 5.9 -13.9°
